CYAH

La Grande Iv  Airport

La Grande, Canada
Issued Wind Visibility Ceiling Temperature Dew Point Humidity Barometer
Nov-20
11:00 UTC
270°
16 KTS
Gust 27 KTS
1 1/2 miles Overcast
1,600' AGL
-5° C
23° F
-6° C
21° F
93% 29.1" Hg
987.4 hPa
IFR
Nov-20
10:36 UTC
280°
16 KTS
Gust 27 KTS
1 1/2 miles Overcast
1,800' AGL
-5° C
23° F
-6° C
21° F
93% 29.09" Hg
987 hPa
IFR
Nov-20
10:00 UTC
270°
16 KTS
Gust 22 KTS
1 3/4 miles Overcast
1,600' AGL
-5° C
23° F
-6° C
21° F
93% 29.08" Hg
986.8 hPa
IFR
Nov-20
09:37 UTC
260°
14 KTS
Gust 22 KTS
2 1/4 miles Broken
1,600' AGL
-5° C
23° F
-6° C
21° F
93% 29.08" Hg
986.7 hPa
IFR
Nov-20
09:01 UTC
260°
17 KTS
3 miles Broken
1,600' AGL
-5° C
23° F
-7° C
19° F
86% 29.07" Hg
986.4 hPa
MVFR
Nov-20
08:00 UTC
260°
13 KTS
Gust 20 KTS
2 miles Overcast
2,100' AGL
-6° C
21° F
-7° C
19° F
93% 29.07" Hg
986.6 hPa
IFR
Nov-20
07:58 UTC
260°
14 KTS
Gust 20 KTS
2 miles Overcast
2,100' AGL
-6° C
21° F
-7° C
19° F
93% 29.07" Hg
986.6 hPa
IFR
Nov-20
07:38 UTC
270°
12 KTS
Gust 17 KTS
2 1/2 miles Overcast
2,500' AGL
-6° C
21° F
-7° C
19° F
93% 29.07" Hg
986.5 hPa
IFR
Nov-20
07:17 UTC
270°
12 KTS
2 miles Overcast
2,500' AGL
-7° C
19° F
-8° C
18° F
93% 29.07" Hg
986.6 hPa
IFR
Nov-20
07:00 UTC
270°
12 KTS
Gust 20 KTS
1 3/4 miles Overcast
2,300' AGL
-7° C
19° F
-8° C
18° F
93% 29.07" Hg
986.5 hPa
IFR
Nov-20
06:51 UTC
270°
13 KTS
Gust 19 KTS
2 1/2 miles Overcast
2,500' AGL
-7° C
19° F
-8° C
18° F
93% 29.06" Hg
986.4 hPa
IFR
Nov-20
06:33 UTC
270°
13 KTS
Gust 18 KTS
3 miles Overcast
2,700' AGL
-7° C
19° F
-8° C
18° F
93% 29.06" Hg
986.3 hPa
MVFR
Nov-20
06:16 UTC
270°
11 KTS
Gust 17 KTS
1 3/4 miles Overcast
2,100' AGL
-7° C
19° F
-8° C
18° F
93% 29.06" Hg
986.1 hPa
IFR
Nov-20
06:00 UTC
270°
14 KTS
1 miles Vertical visibility
1,200' AGL
-7° C
19° F
-8° C
18° F
93% 29.06" Hg
986.1 hPa
LIFR
Nov-20
05:00 UTC
270°
12 KTS
1 miles Vertical visibility
1,100' AGL
-7° C
19° F
-7° C
19° F
100% 29.06" Hg
986.4 hPa
LIFR
Nov-20
04:00 UTC
260°
12 KTS
1 1/4 miles Overcast
1,700' AGL
-6° C
21° F
-6° C
21° F
100% 29.06" Hg
986.3 hPa
IFR
Nov-20
03:00 UTC
270°
10 KTS
Gust 15 KTS
1 miles Vertical visibility
1,000' AGL
-5° C
23° F
-6° C
21° F
93% 29.07" Hg
986.5 hPa
LIFR
Nov-20
02:00 UTC
270°
9 KTS
1 miles Vertical visibility
1,200' AGL
-4° C
25° F
-5° C
23° F
93% 29.08" Hg
986.9 hPa
LIFR
Nov-20
01:03 UTC
270°
8 KTS
1 1/2 miles Overcast
1,200' AGL
-4° C
25° F
-4° C
25° F
100% 29.1" Hg
987.4 hPa
IFR
Nov-20
00:55 UTC
270°
7 KTS
1 3/4 miles Broken
900' AGL
-4° C
25° F
-4° C
25° F
100% 29.1" Hg
987.5 hPa
IFR
Nov-20
00:42 UTC
280°
6 KTS
1 1/4 miles Broken
700' AGL
-3° C
27° F
-4° C
25° F
93% 29.1" Hg
987.6 hPa
IFR
Nov-20
00:29 UTC
280°
4 KTS
1 1/4 miles Overcast
900' AGL
-3° C
27° F
-3° C
27° F
100% 29.11" Hg
987.8 hPa
IFR
Nov-20
00:00 UTC
300°
6 KTS
1 1/4 miles Overcast
700' AGL
-3° C
27° F
-3° C
27° F
100% 29.11" Hg
987.9 hPa
IFR
Nov-19
23:37 UTC
300°
5 KTS
1 1/4 miles Overcast
700' AGL
-3° C
27° F
-3° C
27° F
100% 29.12" Hg
988.3 hPa
IFR
Nov-19
23:26 UTC
300°
4 KTS
1 miles Vertical visibility
800' AGL
-3° C
27° F
-3° C
27° F
100% 29.13" Hg
988.6 hPa
LIFR
Nov-19
23:00 UTC
300°
4 KTS
1 1/4 miles Overcast
1,300' AGL
-3° C
27° F
-3° C
27° F
100% 29.13" Hg
988.8 hPa
IFR
Nov-19
22:48 UTC
320°
4 KTS
1 miles Overcast
1,100' AGL
-3° C
27° F
-3° C
27° F
100% 29.14" Hg
989 hPa
IFR
Nov-19
22:00 UTC
Varies @2 KTS 3/4 miles Broken
600' AGL
-3° C
27° F
-3° C
27° F
100% 29.16" Hg
989.6 hPa
LIFR
Nov-19
21:50 UTC
330°
3 KTS
3/4 miles Overcast
900' AGL
-3° C
27° F
-3° C
27° F
100% 29.16" Hg
989.7 hPa
LIFR
Nov-19
21:42 UTC
340°
3 KTS
3/4 miles Overcast
1,100' AGL
-3° C
27° F
-3° C
27° F
100% 29.16" Hg
989.7 hPa
LIFR
Nov-19
21:31 UTC
340°
3 KTS
3/4 miles Broken
700' AGL
-3° C
27° F
-3° C
27° F
100% 29.17" Hg
989.8 hPa
LIFR
Nov-19
21:17 UTC
350°
3 KTS
3/4 miles Overcast
1,000' AGL
-3° C
27° F
-3° C
27° F
100% 29.17" Hg
990 hPa
LIFR
Nov-19
21:04 UTC
350°
2 KTS
1/38 miles Vertical visibility
900' AGL
-3° C
27° F
-3° C
27° F
100% 29.17" Hg
990.1 hPa
LIFR
Nov-19
20:49 UTC
360°
3 KTS
1/4 miles Overcast
1,100' AGL
-3° C
27° F
-3° C
27° F
100% 29.18" Hg
990.2 hPa
LIFR
Nov-19
20:41 UTC
350°
3 KTS
1/2 miles Overcast
1,300' AGL
-3° C
27° F
-3° C
27° F
100% 29.18" Hg
990.2 hPa
LIFR
Nov-19
20:14 UTC
010°
3 KTS
3/4 miles Broken
700' AGL
-3° C
27° F
-3° C
27° F
100% 29.19" Hg
990.7 hPa
LIFR
Nov-19
20:00 UTC
020°
3 KTS
1/63 miles Overcast
1,100' AGL
-3° C
27° F
-3° C
27° F
100% 29.2" Hg
990.9 hPa
LIFR
Nov-19
19:39 UTC
020°
3 KTS
1/38 miles Overcast
1,100' AGL
-3° C
27° F
-3° C
27° F
100% 29.2" Hg
991 hPa
LIFR
Nov-19
19:00 UTC
330°
3 KTS
1/63 miles Overcast
1,500' AGL
-3° C
27° F
-3° C
27° F
100% 29.22" Hg
991.7 hPa
LIFR
Nov-19
18:00 UTC
Varies @2 KTS 1 miles Overcast
2,000' AGL
-3° C
27° F
-4° C
25° F
93% 29.25" Hg
992.9 hPa
IFR
Nov-19
17:00 UTC
1 miles Vertical visibility
1,900' AGL
-4° C
25° F
-4° C
25° F
100% 29.28" Hg
993.9 hPa
LIFR
Nov-19
16:00 UTC
080°
4 KTS
3/4 miles Vertical visibility
1,900' AGL
-4° C
25° F
-5° C
23° F
93% 29.32" Hg
995.1 hPa
LIFR
Nov-19
15:00 UTC
060°
3 KTS
3/4 miles Vertical visibility
1,400' AGL
-5° C
23° F
-6° C
21° F
93% 29.35" Hg
996.2 hPa
LIFR
Nov-19
14:00 UTC
060°
3 KTS
3/4 miles Vertical visibility
1,300' AGL
-6° C
21° F
-6° C
21° F
100% 29.39" Hg
997.6 hPa
LIFR
Nov-19
13:00 UTC
080°
3 KTS
3/4 miles Vertical visibility
1,700' AGL
-6° C
21° F
-7° C
19° F
93% 29.41" Hg
998.4 hPa
LIFR
Nov-19
12:19 UTC
090°
5 KTS
1 miles Overcast
2,400' AGL
-6° C
21° F
-7° C
19° F
93% 29.43" Hg
999.2 hPa
IFR
Nov-19
12:05 UTC
080°
5 KTS
1 3/4 miles Overcast
2,800' AGL
-6° C
21° F
-7° C
19° F
93% 29.44" Hg
999.4 hPa
IFR
Nov-19
11:36 UTC
060°
4 KTS
1 1/4 miles Overcast
2,600' AGL
-7° C
19° F
-7° C
19° F
100% 29.44" Hg
999.5 hPa
IFR